Location: Newark
(40.0667°N, 18.0500°E)
Time: 17:26:21
(UTC+00:00)

LightSail 2 - Visible Passes

Search period start: 24 January 2020 00:00
Search period end: 03 February 2020 00:00
Orbit: 704 x 719 km, 24.0° (Epoch: 24 January)

Date Brightness Start Highest point End Pass type
(mag) Time Alt. Az. Time Alt. Az. Time Alt. Az.
24 Jan 7.6 16:33:45 10° SSW 16:36:00 13° S 16:38:15 10° SSE visible
25 Jan 7.7 17:20:48 10° SSW 17:22:23 11° S 17:23:57 10° S visible
26 Jan 7.7 16:22:07 10° SSW 16:24:09 12° S 16:26:11 10° SSE visible
